EW3683 Weather Reports


time (UTC)temp
F
wind
direction
speed
knots
gust
knots
rain 1hr
in
rain 24hr
in
rain mn
in
humidity
%
barometer
mb
20260507063036 53 228 0.0 1.7 0.00 0.00 0.00 81 1021.8
20260507061536 53 40 0.0 0.9 0.00 0.00 0.00 84 1021.6
20260507060035 53 40 0.0 1.7 0.00 0.00 0.00 82 1021.7
20260507054538 54 82 0.0 0.0 0.00 0.00 0.00 83 1021.7
20260507053034 54 82 0.0 0.0 0.00 0.00 0.00 83 1021.6
20260507051534 54 81 0.0 0.9 0.00 0.00 0.00 82 1021.8
20260507050034 54 37 0.0 0.0 0.00 0.00 0.00 82 1021.8
20260507044534 54 37 0.0 0.0 0.00 0.00 0.00 82 1021.9
20260507043031 54 37 0.0 0.0 0.00 0.00 0.00 81 1021.8
20260507041531 54 37 0.0 0.0 0.00 0.00 0.00 80 1021.8
20260507040029 55 37 0.0 0.9 0.00 0.00 0.00 79 1021.6
20260507034528 55 37 0.0 1.7 0.00 0.00 0.00 78 1021.6
20260507033030 56 41 0.0 0.9 0.00 0.00 0.00 80 1021.3
20260507031527 56 42 0.0 0.9 0.00 0.00 0.00 79 1021.1
20260507030026 56 19 0.0 0.9 0.00 0.00 0.00 78 1021.1
20260507024526 57 19 0.0 1.7 0.00 0.00 0.00 77 1021.0
20260507023025 57 47 0.0 1.7 0.00 0.00 0.00 76 1020.9
20260507021525 58 57 0.0 0.9 0.00 0.00 0.00 75 1020.8
20260507020029 58 31 0.0 2.6 0.00 0.00 0.00 73 1020.9
20260507014529 59 12 0.0 2.6 0.00 0.00 0.00 72 1020.7
20260507013040 59 339 0.0 0.9 0.00 0.00 0.00 73 1020.6
20260507011523 60 35 0.0 1.7 0.00 0.00 0.00 72 1020.6
20260507010031 60 17 0.0 1.7 0.00 0.00 0.00 70 1020.8
20260507004521 60 22 0.0 3.5 0.00 0.00 0.00 68 1020.9
20260507003020 61 340 0.9 5.2 0.00 0.00 0.00 66 1021.0
20260507001521 61 312 0.0 2.6 0.00 0.00 0.00 69 1020.9
20260507000020 62 5 0.0 4.3 0.00 0.00 0.00 67 1020.9
20260506234519 62 93 0.0 1.7 0.00 0.00 0.00 67 1020.8
20260506233019 63 93 0.9 1.7 0.00 0.00 0.00 67 1020.9
20260506231518 63 29 0.0 2.6 0.00 0.00 0.00 65 1020.9
20260506230016 63 36 0.9 3.5 0.00 0.00 0.00 66 1021.0
20260506224514 62 344 0.9 4.3 0.00 0.00 0.00 68 1021.1
20260506223014 61 222 0.0 1.7 0.00 0.00 0.00 71 1021.2
20260506221514 61 44 0.9 2.6 0.00 0.00 0.00 67 1021.4
20260506220012 62 114 0.0 3.5 0.00 0.00 0.00 67 1021.4
20260506214517 62 53 0.9 5.2 0.00 0.00 0.00 66 1021.4
20260506213008 62 174 0.9 3.5 0.00 0.00 0.00 67 1021.4
20260506211504 60 345 0.0 5.2 0.00 0.00 0.00 70 1021.4
20260506210100 59 338 1.7 5.2 0.00 0.00 0.00 70 1021.3
20260506204557 59 20 0.9 4.3 0.00 0.00 0.00 72 1021.2
20260506203058 59 42 0.9 3.5 0.00 0.00 0.00 72 1021.2
20260506201554 59 57 0.9 5.2 0.00 0.00 0.00 72 1021.2
20260506200052 58 5 0.9 4.3 0.00 0.00 0.00 73 1021.2
20260506194550 58 169 0.0 2.6 0.00 0.00 0.00 75 1021.3
20260506193051 58 16 0.0 4.3 0.00 0.00 0.00 76 1021.2
20260506191547 58 336 0.0 3.5 0.00 0.00 0.00 78 1021.0
20260506190044 57 28 0.9 4.3 0.00 0.00 0.00 80 1021.0
20260506184550 57 51 0.0 2.6 0.00 0.00 0.00 81 1021.2
20260506183052 56 5 0.0 2.6 0.00 0.00 0.00 81 1021.1
20260506181608 56 355 0.0 2.6 0.00 0.00 0.00 82 1021.1
20260506180038 55 18 0.0 1.7 0.00 0.00 0.00 82 1021.1
20260506174540 55 11 0.0 2.6 0.00 0.00 0.00 81 1021.1
20260506173053 55 355 0.0 1.7 0.00 0.00 0.00 83 1020.9
20260506171534 55 348 0.9 2.6 0.00 0.00 0.00 82 1020.8
20260506170035 55 21 0.0 2.6 0.00 0.00 0.00 84 1020.7
20260506164537 54 30 0.0 2.6 0.00 0.00 0.00 86 1020.5
20260506163035 54 10 0.0 1.7 0.00 0.00 0.00 86 1020.7
20260506161530 54 5 0.0 1.7 0.00 0.00 0.00 86 1020.7
20260506160030 53 15 0.0 1.7 0.00 0.00 0.00 87 1020.7
20260506154527 53 355 0.0 1.7 0.00 0.00 0.00 87 1020.5
20260506153026 53 26 0.0 1.7 0.00 0.00 0.00 87 1020.5
20260506151526 53 351 0.0 2.6 0.00 0.00 0.00 87 1020.4
20260506150027 53 98 0.0 1.7 0.00 0.00 0.00 88 1019.7
20260506144526 52 82 0.0 1.7 0.00 0.00 0.00 88 1020.0
20260506143028 52 57 0.0 2.6 0.00 0.00 0.00 88 1020.4
20260506141523 52 34 0.0 1.7 0.00 0.00 0.00 89 1020.5
20260506140024 52 36 0.0 1.7 0.00 0.00 0.00 89 1020.2
20260506134520 52 45 0.0 0.9 0.00 0.00 0.00 89 1020.4
20260506133018 52 62 0.0 0.9 0.00 0.00 0.00 90 1019.8
20260506131524 52 53 0.0 0.9 0.00 0.00 0.00 90 1019.9
20260506130114 52 53 0.0 0.9 0.00 0.00 0.00 91 1019.6
20260506124512 52 324 0.0 0.9 0.00 0.00 0.00 91 1019.6
20260506123011 53 307 0.0 0.0 0.00 0.00 0.00 92 1019.3
20260506121510 53 290 0.0 0.9 0.00 0.00 0.00 93 1019.2
20260506120016 53 290 0.0 0.0 0.00 0.00 0.00 93 1019.2
20260506114517 53 290 0.0 0.9 0.00 0.01 0.00 93 1019.2
20260506113018 53 290 0.0 0.0 0.00 0.01 0.00 93 1019.1
20260506111505 53 290 0.0 0.0 0.00 0.01 0.00 93 1019.1
20260506110003 53 290 0.0 0.0 0.00 0.01 0.00 92 1019.0
20260506104501 53 290 0.0 0.0 0.00 0.01 0.00 92 1018.8
20260506103100 53 290 0.0 0.0 0.00 0.01 0.00 91 1018.7
20260506101558 54 290 0.0 0.9 0.00 0.01 0.00 90 1018.6
20260506100056 54 290 0.0 0.0 0.00 0.01 0.00 88 1018.6
20260506094554 54 290 0.0 0.9 0.00 0.01 0.00 87 1018.5
20260506093052 55 290 0.0 0.0 0.00 0.01 0.00 86 1018.3
20260506091555 55 290 0.0 0.0 0.00 0.01 0.00 86 1018.2
20260506090057 55 290 0.0 0.0 0.00 0.01 0.00 85 1018.3
20260506084551 55 290 0.0 0.0 0.00 0.01 0.00 85 1018.2
20260506083047 55 290 0.0 0.0 0.00 0.01 0.00 85 1018.0
20260506081545 55 290 0.0 0.0 0.00 0.01 0.00 84 1017.9
20260506073040 56 290 0.0 0.9 0.00 0.01 0.00 84 1017.6
20260506071538 56 257 0.0 0.9 0.00 0.01 0.00 84 1017.4